Location: Chiroubles
(46.1812°N, 4.6660°E)
Time: 19:01:20
(UTC+00:00)

Cosmos 1862 Rocket - Pass Details

Date: 15 August 2020
Orbit: 603 x 635 km, 82.5° (Epoch: 24 September)

Event Time Altitude Azimuth Distance (km) Brightness Sun altitude
Rises 20:15:04 0° 348° (NNW) 2,929 7.8 -13.7°
Reaches altitude 10° 20:17:20 10° 346° (NNW) 2,013 7.0 -14.0°
Maximum altitude 20:21:45 66° 264° (W) 681 3.9 -14.6°
Enters shadow 20:25:58 11° 183° (S) 1,926 5.7 -15.2°
